Hourly Data Report for August 29, 2006

TORONTO CITY
ONTARIO

43°40'00.000" N
79°24'00.000" W
112.50 m
6158355
71508
XTO

Download Data

Hourly Data (August 2006)
Hourly Data Report for August 29, 2006
TIME
LST
Temp Definition
°C
Dew Point Definition
°C
Rel Hum Definition
%
Precip. Amount Definition
mm

Wind Dir Definition
10's deg

Wind Spd Definition
km/h
Visibility Definition
km
Stn Press Definition
kPa
Hmdx Definition


Wind Chill Definition


Weather Definition


00:00 19.2 17.3 89   LegendMM LegendMM   99.82     LegendNANA
01:00 18.1 16.6 91   LegendMM LegendMM   99.76     LegendNANA
02:00 18.1 17.3 95   LegendMM LegendMM   99.69     LegendNANA
03:00 18.4 17.7 96   LegendMM LegendMM   99.69     LegendNANA
04:00 18.2 17.5 96   LegendMM LegendMM   99.65     LegendNANA
05:00 18.3 17.4 94   LegendMM LegendMM   99.67     LegendNANA
06:00 18.3 17.0 92   LegendMM LegendMM   99.69     LegendNANA
07:00 18.8 16.8 88   LegendMM LegendMM   99.68     LegendNANA
08:00 19.2 17.2 88   LegendMM LegendMM   99.71     LegendNANA
09:00 19.8 16.9 83   LegendMM LegendMM   99.72     LegendNANA
10:00 20.8 15.9 74   LegendMM LegendMM   99.75 25   LegendNANA
11:00 22.4 16.1 68   LegendMM LegendMM   99.75 27   LegendNANA
12:00 22.2 15.3 65   LegendMM LegendMM   99.75 26   LegendNANA
13:00 23.8 15.1 58   LegendMM LegendMM   99.75 28   LegendNANA
14:00 23.2 16.6 66   LegendMM LegendMM   99.78 28   LegendNANA
15:00 22.9 17.0 69   LegendMM LegendMM   99.74 28   LegendNANA
16:00 22.4 16.7 70   LegendMM LegendMM   99.74 27   LegendNANA
17:00 21.6 17.1 76   LegendMM LegendMM   99.76 27   LegendNANA
18:00 21.5 17.0 76   LegendMM LegendMM   99.78 27   LegendNANA
19:00 20.3 16.5 79   LegendMM LegendMM   99.83 25   LegendNANA
20:00 19.4 16.4 83   LegendMM LegendMM   99.93     LegendNANA
21:00 18.4 16.0 86   LegendMM LegendMM   99.97     LegendNANA
22:00 18.1 16.0 88   LegendMM LegendMM   99.98     LegendNANA
23:00 17.9 16.1 89   LegendMM LegendMM   99.96     LegendNANA

Notes on Data Quality.

Legend

  • E = Estimated
  • M = Missing
  • NA = Not Available*
  • [empty] = Indicates an unobserved value
Date modified: